Key statistics
Satellite SL-8 DEB at a glance.
Uptime
17109
Days in orbit
Revolutions
≈ 14.8
Per day
Orbit
LEO
Low Earth Orbit
Inclination
82.9
Latest
Satellite identification and parameters
Extended collection of information and parameters for SL-8 DEB.
Object identification
Identified? True
Debris? True
Object name: SL-8 DEB
International designator: 1978-007C
Object number (NORAD): 11587
Object ID (CCSDS): 11587
Country: COMMONWEALTH OF INDEPENDENT STATES (CIS)
Current information (Y/N): Y
RCS size: SMALL
Orbital parameters
Decay date: Nov. 20, 2024
Period: 97.426 minutes
Inclination: 82.9022 deg
SMA: 7013.65 km
Apoapsis: 640.321 km
Periapsis: 630.709 km
RAAN: 68.1129 deg
Eccentricy: 0.0006852
Argument of periapsis: 195.0211 deg
Mean anomaly: 165.0799 deg
Mean motion: 14.78041553 rev/day
Mean motion (dot): 0.00033213 rev/day2
B* drag term: 0.0045772 1/REarth
Two-line elements (TLE)
Creation date: Feb. 11, 2024, 5:15 p.m.
Reference frame: TEME
Reference center: EARTH
Epoch: Feb. 11, 2024, 12:09 p.m. UTC
TLE line 0: 0 SL-8 DEB
TLE line 1: 1 11587U 78007C 24042.50673007 .00033213 00000-0 45772-2 0 9993
TLE line 2: 2 11587 82.9022 68.1129 0006852 195.0211 165.0799 14.78041553263752
Live tracking on map
Satellite SL-8 DEB has decayed and is no longer in orbit. No tracking available.
In-orbit conjunctions
Satellite SL-8 DEB has decayed and is no longer in orbit. No conjunctions available.
Associated space launch
Navigation satellite providing location information for the Tsiklon-B navigation system
SL-8 DEB was lifted into orbit during the mission ‘Kosmos-3M | Parus 12’, on board a Kosmos-3M space rocket.
The launch took place on Jan. 17, 1978, 3:26 a.m. from 132/1 (132L).
For more information about the launch, click the button.
Kosmos-3M | Parus 12
Agency: N/A
Status: Launch Successful
Launch date: Jan. 17, 1978, 3:26 a.m. UTC
Rocket: Kosmos-3M
Launch pad: 132/1 (132L)
Location: Plesetsk Cosmodrome, Russian Federation
...
Latest news about this satellite
There are no fresh news available about this satellite. Check back as we update our databases every day.
Newsletter sign-up
Weekly statistics, charts and insights to help you stay on top of the space industry.
